Weather in Avarua

Cook Islands     21°12′27″S   159°46′37″W
temp.,
°C
wind,
m/s
gust,
m/s
humid.,
%
clouds,
%
prec.,
mm/h
press.,
hPa
HPBL,
m
7 august, sun
sun723:00+22ese141577100 0.8 10201236
02:00+23ese141470100 0.9 10191332
05:00+22ese121369100 0.1 10181334
08:00+23ese111263100 0.1 10201631
11:00+23e111263100 0.1 10211593
14:00+23e111363100 0.1 10191662
17:00+22e121472100 0.6 10181334
20:00+23e12136896 0.8 10191369
8 august, mon
mon823:00+23e131364100 0.1 10201508
02:00+23ese111267100 0.4 10191563
05:00+23ese111269100 0.4 10181423
08:00+22ese111275100 0.9 10201118
11:00+23ese12137449 0.5 10201195
14:00+23ese12127012 0.9 10181299
17:00+23ese11126912 0.1 10171274
20:00+23e11106521 0.1 10181518
9 august, tue
tue923:00+23ese910711 0.3 10191218
02:00+22ese997414 0.5 10181026
05:00+22ese997439 0.6 10171013
08:00+23ese99725 0.9 10181087
11:00+23ese997210 0.1 10191053
14:00+23ese887325 0.3 1017961
17:00+23ese99712 0.1 10161076
20:00+23ese99731 0.1 10171085
10 august, wed
wed1023:00+23ese77720 0.1 10181036
02:00+23ese66727 0.2 1017954
05:00+23e66725 0.1 1016978
08:00+23ese567311 0.1 1017885
11:00+23ese557423 0.1 1018832
14:00+23ese557313 0.1 1016841
17:00+23e457316 0.0 1015853
20:00+23e45740 0.0 1016725
11 august, thu
thu1123:00+23ene55747 0.0 1017873
02:00+23ene557617 0.0 1016761
05:00+23ene557923 0.1 1015696
08:00+23nne66769 0.3 1017805
11:00+23nne567952 0.1 1018606
14:00+24n777513 0.8 1016909
17:00+24n66695 0.1 1015868
20:00+24n667229 0.1 1016857